{"data":{"norad_id":56693,"epoch":"2026-09-20T16:44:52.439424Z","epoch_age_seconds":97840,"freshness":"FRESH","line1":"1 56693U 23067F   26263.69782916  .00000210  00000+0  17140-4 0  9993","line2":"2 56693  43.0031 260.0083 0001182 271.4012  88.6704 15.27573476185408","mean_motion":15.27573476,"eccentricity":0.0001182,"inclination_deg":43.0031,"raan_deg":260.0083,"arg_perigee_deg":271.4012,"mean_anomaly_deg":88.6704,"bstar":1.714e-5,"rev_number":18540,"period_min":94.267151310501,"perigee_km":482.25763680655,"apogee_km":483.8796258178,"semimajor_km":6861.2056313122,"source":"CELESTRAK","updated_at":"2026-09-21T09:00:33.481615Z"}}